[[{"header":{"parameterUnit":"m.s-1","parameterCategory":1,"la1":30.2992,"la2":30.254,"lo1":-89.0895,"lo2":-89.0443,"dy":0.0025,"dx":0.0025,"nx":19,"ny":19,"refTime":"2026-03-06T03:00:00:Z","depth":0,"parameterNumber":2,"parameterNumberName":"U-component_of_WINDS"},"data":[0,0,0,-4.3775,-4.3776,-4.3792,-4.3792,-4.3841,-4.3842,0,0,0,0,0,0,0,0,0,0,0,-4.3787,-4.3787,-4.3775,-4.3776,-4.3792,-4.3792,-4.3841,-4.3842,0,0,0,0,0,0,0,0,0,0,0,-4.3786,-4.3787,-4.3788,-4.3776,-4.3792,-4.3792,-4.3841,-4.3819,0,0,0,0,0,0,0,0,0,0,-4.3798,-4.3824,-4.3787,-4.3788,-4.3776,-4.3792,-4.3792,-4.3817,-4.382,-4.3846,0,-4.3873,0,-4.3859,-4.3847,-4.3847,0,0,0,-4.3764,-4.3822,-4.3812,-4.3788,-4.3777,-4.3792,-4.3781,-4.3819,-4.3822,-4.385,-4.3873,-4.3874,-4.3859,-4.3848,-4.3848,-4.404,-4.4041,0,0,-4.3763,-4.3798,-4.381,-4.3815,-4.3813,-4.3781,-4.3782,-4.382,-4.3847,-4.3873,-4.3875,-4.386,-4.3848,-4.3849,-4.4038,-4.404,0,0,0,-4.3768,-4.3798,-4.3786,-4.3814,-4.3814,-4.3782,-4.3783,-4.3845,-4.3839,-4.3875,-4.3861,-4.3849,-4.3849,-4.4036,-4.4039,-4.4145,0,0,0,-4.3767,-4.3801,-4.3786,-4.3808,-4.3814,-4.383,-4.3808,-4.3836,-4.3839,-4.3861,-4.3849,-4.385,-4.4035,-4.4038,-4.4139,-4.4189,0,0,0,-4.378,-4.3802,-4.381,-4.381,-4.3818,-4.3828,-4.3824,-4.3836,-4.3832,-4.3847,-4.385,-4.4034,-4.4037,-4.4133,-4.4179,-4.425,0,0,0,-4.3803,-4.3903,-4.3812,-4.3919,-4.3818,-4.3895,-4.3823,-4.3878,-4.3905,-4.3849,-4.4035,-4.4039,-4.4131,-4.4173,-4.4244,-4.4315,-4.4348,0,0,-4.3948,-4.3921,-4.3982,-4.3901,-4.4003,-4.389,-4.4008,-4.3998,-4.3967,-4.4018,-4.4022,-4.4141,-4.4178,-4.4249,-4.4524,-4.4551,0,0,0,-4.404,-4.4083,-4.4103,-4.4131,-4.4128,-4.413,-4.4099,-4.4097,-4.4138,-4.4,-4.4185,-4.4207,-4.4246,-4.4278,-4.4301,-4.4333,-4.4055,-4.4055,-4.4055,-4.4292,-4.425,-4.4348,-4.431,-4.4339,-4.4309,-4.4329,-4.4321,-4.4267,-4.4313,-4.4326,-4.4499,-4.4538,-4.4554,-4.4589,-4.4362,-4.4362,-4.4363,-4.4363,-4.45,-4.4555,-4.4488,-4.4559,-4.4516,-4.4574,-4.4553,-4.4515,-4.4564,-4.4484,-4.4517,-4.4431,-4.4585,-4.4613,-4.4371,-4.4369,-4.4368,-4.4368,-4.4367,-4.4658,-4.4678,-4.4676,-4.4716,-4.4752,-4.4711,-4.4763,-4.4722,-4.4683,-4.4716,-4.4726,-4.4724,-4.4717,-4.4725,-4.4725,-4.4726,-4.4726,-4.4727,-4.4727,-4.4822,-4.4817,-4.4866,-4.4877,-4.4892,-4.4907,-4.4884,-4.4898,-4.4903,-4.4868,-4.4868,-4.4812,-4.4609,-4.4557,-4.4736,-4.4734,-4.4733,-4.4732,-4.4732,-4.5044,-4.4989,-4.5064,-4.5081,-4.5092,-4.5133,-4.5082,-4.5116,-4.5122,-4.515,-4.5089,-4.4946,-4.4914,-4.4896,-4.4853,-4.5098,-4.5098,-4.5098,-4.5098,-4.5176,-4.5159,-4.5229,-4.5258,-4.5282,-4.5246,-4.5336,-4.5322,-4.5297,-4.53,-4.5259,-4.52,-4.5184,-4.5162,-4.5138,-4.5097,-4.5398,-4.5398,-4.5399,-4.5311,-4.5295,-4.5377,-4.5355,-4.5363,-4.5372,-4.5455,-4.5493,-4.5454,-4.541,-4.53,-4.5288,-4.5192,-4.5163,-4.5111,-4.5075,-4.4999,0,0]},{"header":{"parameterUnit":"m.s-1","parameterCategory":1,"la1":30.2992,"la2":30.254,"lo1":-89.0895,"lo2":-89.0443,"dy":0.0025,"dx":0.0025,"nx":19,"ny":19,"refTime":"2026-03-06T03:00:00:Z","depth":0,"parameterNumber":3,"parameterNumberName":"V-component_of_WINDS"},"data":[0,0,0,1.621,1.621,1.6223,1.6223,1.6206,1.6205,0,0,0,0,0,0,0,0,0,0,0,1.6186,1.6186,1.621,1.621,1.6223,1.6223,1.6206,1.6205,0,0,0,0,0,0,0,0,0,0,0,1.6187,1.6186,1.6185,1.621,1.6222,1.6223,1.6206,1.6208,0,0,0,0,0,0,0,0,0,0,1.6201,1.616,1.6186,1.6185,1.621,1.6222,1.6223,1.6209,1.6208,1.6186,0,1.6162,0,1.6183,1.6202,1.6202,0,0,0,1.6224,1.616,1.6182,1.6185,1.6209,1.6222,1.6221,1.6208,1.6207,1.6184,1.6162,1.6162,1.6183,1.6202,1.6201,1.6031,1.603,0,0,1.6223,1.6177,1.6183,1.6181,1.6178,1.622,1.6221,1.6208,1.618,1.6162,1.6162,1.6183,1.6201,1.6201,1.6033,1.6031,0,0,0,1.6212,1.6176,1.6199,1.618,1.6185,1.622,1.6221,1.6181,1.6192,1.6162,1.6182,1.6201,1.6201,1.6034,1.6032,1.5917,0,0,0,1.6212,1.617,1.6198,1.617,1.6185,1.6183,1.6193,1.6193,1.6193,1.6182,1.6201,1.62,1.6036,1.6033,1.5923,1.5869,0,0,0,1.6192,1.6168,1.6163,1.6168,1.6172,1.6185,1.6196,1.6194,1.6204,1.6202,1.62,1.6037,1.6034,1.5929,1.5879,1.5812,0,0,0,1.6157,1.6058,1.616,1.6057,1.6171,1.6113,1.6196,1.6155,1.6139,1.6201,1.6036,1.6032,1.5931,1.5885,1.5818,1.5748,1.5714,0,0,1.6007,1.6038,1.5981,1.6074,1.5986,1.6115,1.6011,1.6038,1.6078,1.6044,1.6041,1.5921,1.588,1.5814,1.5541,1.5514,0,0,0,1.5918,1.5877,1.5864,1.5848,1.5868,1.5881,1.593,1.5941,1.5914,1.6052,1.588,1.5857,1.582,1.5788,1.5765,1.5737,1.6016,1.6016,1.6016,1.5638,1.5698,1.5608,1.567,1.5653,1.5706,1.5698,1.5722,1.5784,1.5743,1.5733,1.5561,1.5522,1.5505,1.5475,1.57,1.57,1.57,1.5699,1.5423,1.5374,1.5464,1.5409,1.5473,1.5427,1.5475,1.5521,1.5488,1.5572,1.5543,1.563,1.5473,1.545,1.5691,1.5693,1.5694,1.5694,1.5695,1.5246,1.5234,1.525,1.5235,1.5217,1.5283,1.5248,1.5306,1.5361,1.5331,1.5328,1.533,1.534,1.5326,1.5325,1.5325,1.5324,1.5324,1.5323,1.5056,1.5079,1.5043,1.5058,1.5058,1.5063,1.5117,1.5118,1.5133,1.5178,1.5178,1.5246,1.5447,1.5497,1.5314,1.5316,1.5317,1.5318,1.5319,1.4816,1.4881,1.4825,1.4824,1.4849,1.4827,1.4904,1.49,1.4908,1.4889,1.4964,1.5104,1.5139,1.5158,1.52,1.4951,1.4951,1.4951,1.4951,1.4667,1.4693,1.4651,1.4646,1.4648,1.4712,1.4647,1.4689,1.4742,1.4751,1.4796,1.4856,1.4872,1.4899,1.4923,1.4963,1.4659,1.4659,1.4659,1.4524,1.4553,1.4486,1.4541,1.4565,1.4585,1.4526,1.4517,1.459,1.4648,1.476,1.4772,1.487,1.4898,1.4958,1.4995,1.5069,0,0]}]]